Location: Florence
(33.9745°N, 118.2481°W)
Time: 20:47:25
(UTC+00:00)

Cosmos 2056 Rocket - Pass Details

Date: 23 March 2023
Orbit: 740 x 800 km, 74.0° (Epoch: 05 June)

Event Time Altitude Azimuth Distance (km) Brightness Sun altitude
Rises 13:15:58 0° 338° (NNW) 3,206 6.6 -8.4°
Reaches altitude 10° 13:18:21 10° 335° (NNW) 2,286 5.8 -7.9°
Maximum altitude 13:23:27 62° 256° (WSW) 860 3.5 -6.9°
Drops below altitude 10° 13:28:37 10° 177° (S) 2,311 6.0 -5.8°
Sets 13:31:01 0° 173° (S) 3,244 6.8 -5.3°
